Location: Praha
(50.0830°N, 14.4670°E)
Time: 21:36:15
(UTC+02:00)

ISS - Pass Details

Date: 14 September 2019
Orbit: 411 x 421 km, 51.6° (Epoch: 19 September)

Event Time Altitude Azimuth Distance (km) Brightness Sun altitude
Exits shadow 04:44:57 32° 177° (S) 742 -2.8 -17.7°
Drops below altitude 10° 04:47:17 10° 141° (SE) 1,487 -0.9 -17.3°
Sets 04:49:27 0° 133° (SE) 2,349 0.3 -17.0°
